SBI5227 UNNT-UIII

Flight info

Callsign SBI5227
Flight time N/A
Altitude 35000
Route OGATI A308 RISPA A822 LAPAK B151 RO A817 SUKOR A91 CS G490 NH
Aircraft E170/M-SDGHIRWY/H

Departure

Time 2026-05-06 20:33
Airport Novosibirsk Tolmachevo Airport (UNNT)

Arrival

Time N/A
Airport Irkutsk International Airport (UIII)
Time Latitude Longitude Altitude Speed Heading
2026-05-06 20:22 55.00932 82.66334 374 ft 0 kts 172°
2026-05-06 20:25 55.00947 82.66330 374 ft 2 kts 171°
2026-05-06 20:25 55.00961 82.66326 374 ft 2 kts 172°
2026-05-06 20:26 55.00976 82.66322 374 ft 2 kts 171°
2026-05-06 20:26 55.00991 82.66320 374 ft 2 kts 184°
2026-05-06 20:26 55.01006 82.66324 374 ft 2 kts 196°
2026-05-06 20:26 55.01020 82.66332 374 ft 2 kts 197°
2026-05-06 20:27 55.01030 82.66336 374 ft 2 kts 184°
2026-05-06 20:27 55.01040 82.66336 374 ft 2 kts 173°
2026-05-06 20:27 55.01055 82.66331 374 ft 2 kts 171°
2026-05-06 20:27 55.01062 82.66329 374 ft 0 kts 172°
2026-05-06 20:30 55.01040 82.66336 374 ft 3 kts 169°
2026-05-06 20:30 55.01026 82.66382 374 ft 6 kts 78°
2026-05-06 20:31 55.01041 82.66471 374 ft 9 kts 70°
2026-05-06 20:31 55.01070 82.66594 374 ft 12 kts 68°
2026-05-06 20:31 55.01146 82.66651 374 ft 14 kts 350°
2026-05-06 20:31 55.01259 82.66618 374 ft 18 kts 352°
2026-05-06 20:32 55.01369 82.66546 374 ft 16 kts 290°
2026-05-06 20:32 55.01371 82.66465 374 ft 0 kts 261°
2026-05-06 20:32 55.01356 82.66293 374 ft 43 kts 261°
2026-05-06 20:32 55.01275 82.65402 374 ft 104 kts 262°
2026-05-06 20:33 55.01133 82.63858 377 ft 151 kts 261°
2026-05-06 20:33 55.00955 82.61993 711 ft 161 kts 262°
2026-05-06 20:33 55.00804 82.60008 1192 ft 169 kts 274°
2026-05-06 20:33 55.01057 82.58024 1781 ft 165 kts 298°
2026-05-06 20:34 55.01852 82.56651 2046 ft 180 kts 341°
2026-05-06 20:34 55.03141 82.56786 2435 ft 208 kts 26°
2026-05-06 20:34 55.04118 82.58750 3022 ft 231 kts 71°
2026-05-06 20:34 55.04093 82.61520 3804 ft 237 kts 110°
2026-05-06 20:35 55.03300 82.64190 4245 ft 260 kts 116°
2026-05-06 20:35 55.02470 82.67082 4773 ft 276 kts 113°
2026-05-06 20:35 55.01657 82.70174 5509 ft 283 kts 112°
2026-05-06 20:35 55.00867 82.73312 6330 ft 286 kts 110°
2026-05-06 20:36 55.00095 82.76447 7138 ft 287 kts 110°
2026-05-06 20:36 54.99312 82.79656 7917 ft 290 kts 110°
2026-05-06 20:36 54.98527 82.82886 8636 ft 293 kts 110°
2026-05-06 20:36 54.97738 82.86136 9332 ft 296 kts 110°
2026-05-06 20:37 54.96933 82.89444 10005 ft 300 kts 110°
2026-05-06 20:37 54.96122 82.92776 10620 ft 305 kts 110°
2026-05-06 20:37 54.95284 82.96215 11149 ft 313 kts 110°
2026-05-06 20:37 54.94428 82.99721 11622 ft 322 kts 110°
2026-05-06 20:38 54.93546 83.03331 12078 ft 331 kts 109°
2026-05-06 20:38 54.93062 83.07252 12526 ft 333 kts 90°
2026-05-06 20:38 54.92925 83.11285 13097 ft 337 kts 89°
2026-05-06 20:38 54.92791 83.15363 13705 ft 340 kts 89°
2026-05-06 20:39 54.92657 83.19450 14311 ft 342 kts 89°
2026-05-06 20:39 54.92522 83.23537 14883 ft 345 kts 89°
2026-05-06 20:39 54.92384 83.27708 15429 ft 349 kts 89°
2026-05-06 20:39 54.92242 83.31909 15973 ft 352 kts 89°
2026-05-06 20:40 54.92077 83.36162 16512 ft 356 kts 90°
2026-05-06 20:40 54.91892 83.40450 17066 ft 359 kts 90°
2026-05-06 20:40 54.91704 83.44785 17601 ft 362 kts 90°
2026-05-06 20:40 54.91513 83.49129 18122 ft 364 kts 90°
2026-05-06 20:41 54.91319 83.53510 18638 ft 368 kts 90°
2026-05-06 20:41 54.91121 83.57967 19151 ft 371 kts 90°
2026-05-06 20:41 54.90921 83.62400 19663 ft 374 kts 90°
2026-05-06 20:41 54.90716 83.66918 20171 ft 377 kts 91°
2026-05-06 20:42 54.90508 83.71461 20661 ft 380 kts 91°
2026-05-06 20:42 54.90294 83.76102 21147 ft 383 kts 91°
2026-05-06 20:42 54.90079 83.80740 21637 ft 386 kts 91°
2026-05-06 20:42 54.89861 83.85394 22119 ft 389 kts 91°
2026-05-06 20:43 54.89641 83.90045 22576 ft 392 kts 91°
2026-05-06 20:43 54.89415 83.94775 23038 ft 395 kts 91°
2026-05-06 20:43 54.89184 83.99581 23505 ft 398 kts 91°
2026-05-06 20:43 54.88953 84.04345 23959 ft 400 kts 91°
2026-05-06 20:44 54.88718 84.09159 24377 ft 403 kts 91°
2026-05-06 20:44 54.88480 84.13989 24764 ft 406 kts 91°
2026-05-06 20:44 54.88239 84.18836 25132 ft 409 kts 91°
2026-05-06 20:44 54.87991 84.23800 25489 ft 412 kts 91°
2026-05-06 20:45 54.87739 84.28789 25853 ft 415 kts 91°
2026-05-06 20:45 54.87482 84.33840 26219 ft 418 kts 91°
2026-05-06 20:45 54.87221 84.38914 26573 ft 421 kts 91°
2026-05-06 20:45 54.86957 84.44023 26918 ft 424 kts 91°
2026-05-06 20:46 54.86689 84.49164 27244 ft 427 kts 91°
2026-05-06 20:46 54.86417 84.54333 27544 ft 430 kts 91°
2026-05-06 20:46 54.86141 84.59527 27856 ft 433 kts 91°
2026-05-06 20:46 54.85862 84.64748 28178 ft 435 kts 92°
2026-05-06 20:47 54.85586 84.70015 28468 ft 438 kts 92°
2026-05-06 20:47 54.85317 84.75237 28759 ft 440 kts 92°
2026-05-06 20:47 54.85041 84.80542 29053 ft 443 kts 92°
2026-05-06 20:47 54.84761 84.85886 29338 ft 445 kts 92°
2026-05-06 20:48 54.84481 84.91164 29625 ft 447 kts 92°
2026-05-06 20:48 54.84195 84.96524 29901 ft 449 kts 92°
2026-05-06 20:48 54.83905 85.01916 30163 ft 451 kts 92°
2026-05-06 20:48 54.83611 85.07343 30402 ft 454 kts 92°
2026-05-06 20:49 54.83314 85.12780 30633 ft 456 kts 92°
2026-05-06 20:49 54.83012 85.18261 30877 ft 458 kts 92°
2026-05-06 20:49 54.82743 85.23753 31107 ft 459 kts 88°
2026-05-06 20:49 54.82886 85.29202 31340 ft 456 kts 78°
2026-05-06 20:50 54.83508 85.34566 31560 ft 453 kts 69°
2026-05-06 20:50 54.84581 85.39650 31789 ft 451 kts 63°
2026-05-06 20:50 54.85741 85.44721 32050 ft 452 kts 64°
2026-05-06 20:50 54.86863 85.49780 32325 ft 452 kts 65°
2026-05-06 20:51 54.87976 85.54855 32588 ft 451 kts 65°
2026-05-06 20:51 54.89082 85.59919 32862 ft 450 kts 65°
2026-05-06 20:51 54.90187 85.64994 33135 ft 450 kts 65°
2026-05-06 20:51 54.91279 85.70019 33358 ft 450 kts 66°
2026-05-06 20:52 54.92377 85.75085 33579 ft 450 kts 66°
2026-05-06 20:52 54.93475 85.80167 33790 ft 449 kts 66°
2026-05-06 20:52 54.94562 85.85209 34022 ft 449 kts 66°
2026-05-06 20:52 54.95651 85.90275 34226 ft 449 kts 66°
2026-05-06 20:53 54.96740 85.95350 34423 ft 449 kts 66°
2026-05-06 20:53 54.97828 86.00451 34607 ft 450 kts 68°
2026-05-06 20:53 54.98713 86.05631 34806 ft 450 kts 71°
2026-05-06 20:53 54.99586 86.10871 34913 ft 453 kts 71°
2026-05-06 20:54 55.00465 86.16093 34928 ft 457 kts 71°
2026-05-06 20:54 55.02265 86.26787 34933 ft 466 kts 71°
2026-05-06 20:55 55.04091 86.37695 34924 ft 475 kts 71°
2026-05-06 20:55 55.05940 86.48811 34922 ft 481 kts 71°
2026-05-06 20:56 55.07789 86.60004 34920 ft 480 kts 71°
2026-05-06 20:56 55.09624 86.71178 34915 ft 481 kts 72°
2026-05-06 20:57 55.11443 86.82328 34918 ft 481 kts 72°
2026-05-06 20:57 55.13258 86.93526 34916 ft 481 kts 72°
2026-05-06 20:58 55.15052 87.04675 34917 ft 480 kts 72°
2026-05-06 20:58 55.16850 87.15911 34913 ft 480 kts 72°
2026-05-06 20:59 55.18626 87.27092 34918 ft 481 kts 72°
2026-05-06 20:59 55.20407 87.38373 34914 ft 482 kts 72°
2026-05-06 21:00 55.22161 87.49566 34911 ft 482 kts 72°
2026-05-06 21:00 55.23923 87.60879 34904 ft 483 kts 72°
2026-05-06 21:01 55.25678 87.72228 34900 ft 483 kts 73°
2026-05-06 21:01 55.27418 87.83555 34904 ft 483 kts 73°
2026-05-06 21:02 55.29142 87.94864 34898 ft 483 kts 73°
2026-05-06 21:02 55.30862 88.06217 34901 ft 484 kts 73°
2026-05-06 21:03 55.32575 88.17602 34899 ft 485 kts 73°
2026-05-06 21:03 55.34282 88.29036 34906 ft 485 kts 73°
2026-05-06 21:04 55.35979 88.40477 34898 ft 485 kts 73°
2026-05-06 21:04 55.37656 88.51871 34898 ft 484 kts 73°
2026-05-06 21:05 55.39328 88.63311 34897 ft 485 kts 74°
2026-05-06 21:05 55.40990 88.74757 34891 ft 485 kts 75°
2026-05-06 21:06 55.42638 88.86200 34895 ft 485 kts 75°
2026-05-06 21:06 55.43564 88.97897 34895 ft 486 kts 84°
2026-05-06 21:07 55.44131 89.09772 35000 ft 485 kts 85°
2026-05-06 21:07 55.44401 89.15659 34823 ft 484 kts 85°
2026-05-06 21:07 55.44667 89.21555 34888 ft 486 kts 85°
2026-05-06 21:08 55.45193 89.33386 34891 ft 486 kts 85°
2026-05-06 21:08 55.45705 89.45158 34888 ft 485 kts 84°
2026-05-06 21:09 55.46207 89.56969 34886 ft 485 kts 85°
2026-05-06 21:09 55.46697 89.68759 34881 ft 485 kts 86°